SCP
-0 -0 0 0 0 0 0 0 0 0 0 0 0 0 0 0 0 0 0 -0 0 0 0 0 -0 -0 -0 -0 -0 -0 -0 -0 -0 -0 -0 -0 0 0 0 0 0 0 0 0 0 -0 -0 -0 -0
-0 -0 0 0 0 0 0 0 0 0 0 0 0 0 0 0 0 0 0 0 0 0 0 0 0 0 -0 0 0 0 0 0 0 0 0 -0 0 0 0 0 0 0 0 0 0 0 0 -0 -0
0 0 0 0 0 0 0 0 0 0 0 0 0 0 0 0 0 0 0 0 0 0 0 0 0 0 0 0 0 0 0 0 0 0 0 0 0 0 0 0 0 0 0 0 0 0 0 0 -0
0 0 0 0 0 0 0 0 0 0 0 0 0 0 0 0 0 0 0 0 0 0 0 0 0 0 0 0 0 0 0 0 0 0 0 0 0 0 0 0 0 0 0 0 0 0 0 0 0
0 0 0 0 0 0 0 0 0 0 0 0 0 0 0 0 0 0 0 0 0 0 0 0 0 0 0 0 0 0 0 0 0 0 0 0 0 0 0 0 0 0 0 0 0 0 0 0 0
0 0 0 0 0 0 0 0 0 0 0 0 0 0 0 0 0 0 0 0 0 0 0 0 0 0 0 0 0 0 0 0 0 0 0 0 0 0 0 0 0 0 0 0 0 0 0 0 0
0 0 0 0 0 0 0 0 0 0 0 0 0 0 0 0 0 0 0 0 0 0 0 0 0 0 0 0 0 0 0 0 0 0 0 0 0 0 0 0 0 0 0 0 0 0 0 0 0
0 0 0 0 0 0 0 0 0 0 0 0 0 0 0 0 0 0 0 0 0 0 0 0 0 0 0 0 0 0 0 0 0 0 0 0 0 0 0 0 0 0 0 0 0 0 0 0 0
0 0 0 0 0 0 0 0 0 0 0 0 0 0 0 0 0 0 0 0 0 0 0 0 0 0 0 0 0 0 0 0 0 0 0 0 0 0 0 0 0 0 0 0 0 0 0 0 0
0 0 0 0 0 0 0 0 0 0 0 0 0 0 0 0 0 0 0 0 0 0 0 0 0 0 0 1 0 0 0 0 0 0 0 0 0 0 0 0 0 0 0 0 0 0 0 0 0
0 0 0 0 0 0 0 0 0 0 0 0 0 0 0 0 0 0 0 0 0 0 0 0 0 0 0 1 1 0 0 0 0 0 0 0 0 0 0 0 0 0 0 0 0 0 0 0 0
0 0 0 0 0 0 0 0 0 0 0 0 0 0 0 0 0 0 0 0 0 0 0 0 0 0 0 0 1 0 0 0 0 0 0 0 0 0 0 0 0 0 0 0 0 0 0 0 0
0 0 0 0 0 0 0 0 0 0 0 0 0 0 0 0 0 0 0 0 0 0 0 0 0 0 0 0 0 1 0 0 0 0 0 0 0 0 0 0 0 0 0 0 0 0 0 0 0
0 0 0 0 0 0 0 0 0 0 0 0 0 0 0 0 0 0 0 0 0 0 0 0 0 0 0 0 0 0 1 1 0 0 0 0 0 0 0 0 0 0 0 0 0 0 0 0 0
0 0 0 0 0 0 0 0 0 0 0 0 0 0 0 -0 0 0 0 0 0 0 0 0 0 0 0 0 0 0 0 1 1 0 0 0 0 0 0 0 0 0 0 0 0 0 0 0 0
0 0 0 0 0 0 0 0 0 0 0 0 0 0 0 0 0 0 0 0 0 0 0 0 0 0 0 0 0 0 0 1 1 0 0 0 0 0 0 0 0 0 0 0 0 0 0 0 0
0 0 0 0 0 0 0 0 0 0 0 0 0 0 0 0 0 0 0 0 0 0 0 0 0 0 0 0 0 0 0 0 0 1 0 0 0 0 0 0 0 0 0 0 0 0 0 0 0
0 0 0 0 0 0 0 0 0 0 0 0 0 0 0 0 0 0 0 0 0 0 0 0 0 0 0 0 0 0 0 0 0 0 0 0 0 0 0 0 0 0 0 0 0 0 0 0 0
0 0 0 0 0 0 0 0 0 0 0 0 0 0 0 0 0 0 0 0 0 0 0 0 0 0 0 0 0 0 0 0 0 0 0 0 0 0 0 0 0 0 0 0 0 0 0 0 0
0 0 0 0 0 0 0 0 0 0 0 0 0 0 0 0 0 0 0 0 0 0 0 0 0 0 0 0 0 0 0 0 0 0 0 0 0 0 0 0 0 0 0 0 0 0 0 0 0
0 0 0 0 0 0 0 0 0 0 0 0 0 0 0 0 0 0 0 0 0 0 0 0 0 0 0 0 0 0 0 0 0 0 0 0 0 0 0 0 0 0 0 0 0 0 0 0 0
0 0 0 0 0 0 0 0 0 0 0 0 0 0 0 0 0 0 0 0 0 0 0 0 0 0 0 0 0 0 0 0 0 0 0 0 0 0 0 0 0 0 0 0 0 0 0 0 0
0 0 0 0 0 0 0 0 0 0 0 0 0 0 0 0 0 0 0 0 0 0 0 0 0 0 0 0 0 0 0 0 0 0 0 0 0 0 0 0 0 0 0 0 0 0 0 0 0
0 0 0 0 0 0 0 0 0 0 0 0 0 0 0 0 0 0 0 0 0 0 0 0 0 0 0 0 0 0 0 0 0 0 0 0 0 0 0 0 0 0 0 0 0 0 0 0 0
0 0 0 0 0 0 0 0 0 0 0 0 0 0 0 0 0 0 0 0 0 0 0 0 0 0 0 0 0 0 0 0 0 0 0 0 0 0 0 0 0 0 0 0 0 0 0 0 0
0 0 0 0 0 0 0 0 0 0 0 0 0 0 0 0 0 0 0 0 0 0 0 0 0 0 0 0 0 0 0 0 0 0 0 0 0 0 0 0 0 0 0 0 0 0 0 0 0
0 0 0 0 0 0 0 0 0 0 0 0 0 0 0 0 0 0 0 0 0 0 0 0 0 0 0 0 0 0 0 0 0 0 0 0 0 0 0 0 0 0 0 0 0 0 0 0 0
0 0 0 0 0 0 0 0 0 0 0 0 0 0 0 0 0 0 0 0 0 0 0 0 0 0 0 0 0 0 0 0 0 0 0 0 0 0 0 0 0 0 0 0 0 0 0 0 0
0 0 0 0 0 0 0 0 0 0 0 0 0 0 0 0 0 0 0 0 0 0 0 0 0 0 0 0 0 0 0 0 0 0 0 0 0 0 0 0 0 0 0 0 0 0 0 0 0
0 0 0 0 0 0 0 0 0 0 0 0 0 0 0 0 0 0 0 0 0 0 0 0 0 0 0 0 0 0 0 0 0 0 0 0 0 0 0 0 0 0 0 0 0 0 0 0 0
Wind_Speed_500mb
15 14 17 4 6 9 6 9 4 8 2 5 5 2 3 5 3 5 1 5 5 6 21 41 45 43 41 39 35 32 29 27 27 26 27 26 23 23 23 21 24 27 28 30 32 32 34 38 39
13 11 8 4 8 3 9 7 3 5 15 23 5 2 4 1 4 3 6 2 4 6 13 33 41 42 39 36 31 28 25 23 27 29 27 25 26 25 22 22 28 28 29 29 31 30 33 40 40
11 10 6 7 6 9 9 5 6 19 23 6 4 3 4 1 4 3 4 2 2 8 10 25 33 36 34 32 30 29 27 25 24 26 29 28 25 27 28 27 30 29 28 29 32 31 37 40 44
3 1 6 6 10 10 8 4 8 17 12 10 9 3 5 3 3 7 9 3 5 10 12 16 29 33 33 32 31 30 29 28 23 20 27 29 27 29 30 30 31 29 29 29 32 34 42 40 47
5 4 3 2 9 10 5 6 15 8 10 14 14 6 4 5 4 4 4 3 6 10 13 14 23 33 34 32 33 32 33 31 26 23 28 33 33 31 31 31 32 34 30 31 34 34 41 46 45
7 6 3 7 9 9 10 8 9 3 10 14 12 12 4 3 6 5 2 4 7 7 8 13 20 29 36 36 37 37 37 36 31 28 25 34 35 36 36 34 33 35 34 33 36 39 45 44 38
11 8 8 6 7 8 3 19 1 4 9 3 12 5 4 6 1 3 6 8 9 15 19 19 22 26 31 39 41 41 41 41 37 33 30 33 37 38 38 39 38 35 36 35 39 42 44 46 44
9 8 3 8 4 9 9 14 6 8 6 12 7 7 4 3 3 8 10 13 14 19 24 29 32 36 36 40 43 43 43 44 41 37 36 36 40 42 42 43 40 42 40 39 40 38 40 44 45
10 7 5 8 7 5 10 12 6 15 19 14 6 5 7 10 11 10 9 13 19 21 26 30 36 41 43 38 38 43 47 45 43 39 42 41 43 47 44 45 45 46 40 44 44 41 42 44 47
7 6 13 4 2 4 12 4 18 12 14 15 32 26 20 27 35 30 25 19 20 23 25 25 37 44 49 47 47 46 48 52 52 52 51 49 49 53 49 51 48 50 38 46 46 46 50 42 49
4 9 4 5 4 10 10 12 5 6 11 19 13 31 37 34 28 28 28 25 25 28 28 33 31 38 52 57 58 60 57 61 63 62 59 57 56 54 56 55 54 57 51 50 51 52 45 41 49
4 5 3 4 6 13 13 23 14 24 31 35 38 34 27 23 21 24 31 34 32 28 31 35 37 38 44 49 64 71 75 73 70 69 67 64 63 65 61 64 58 68 62 61 63 57 50 46 49
3 3 7 10 26 29 28 26 21 39 55 40 39 27 22 30 41 46 49 46 44 47 44 42 45 46 45 43 50 63 74 83 82 76 73 73 73 72 69 69 66 70 68 69 70 63 57 56 56
4 10 20 10 7 7 11 13 8 13 12 24 20 26 34 46 63 64 58 54 51 49 51 51 53 53 58 54 50 49 59 69 83 84 81 79 84 80 78 74 73 80 76 72 76 70 64 58 60
7 11 11 1 4 1 14 18 17 31 24 20 26 43 59 71 49 38 32 28 25 25 29 35 38 44 52 59 60 54 49 53 64 82 91 88 92 94 84 82 78 88 85 82 81 78 72 66 64
5 5 7 2 11 3 9 21 12 14 15 34 54 68 62 35 27 21 18 28 30 34 31 28 32 35 39 42 46 53 49 47 58 63 77 104 107 96 98 93 90 85 97 94 87 91 84 77 70
11 4 4 15 5 8 3 19 20 53 45 47 58 61 45 33 24 20 27 33 36 42 38 28 24 28 33 36 37 42 47 46 46 57 64 71 90 103 100 104 100 89 105 105 93 99 96 89 85
4 5 7 10 6 9 19 41 47 73 38 47 58 46 34 30 29 26 21 21 23 26 27 24 24 27 28 29 32 35 45 51 49 47 54 69 68 91 91 116 112 104 116 115 102 100 102 96 94
7 2 8 9 6 11 17 28 49 61 31 43 50 30 25 28 23 23 22 26 22 22 23 27 34 35 34 33 34 35 36 36 39 45 50 58 62 69 72 115 131 124 119 114 110 102 109 105 105
2 3 10 12 3 7 19 43 53 24 13 22 21 16 24 28 22 19 26 28 31 31 32 33 36 39 38 39 43 49 54 54 54 53 49 45 59 64 63 73 75 117 118 118 109 102 110 117 111
5 7 5 9 13 4 21 15 13 8 6 9 19 25 32 27 25 36 35 37 39 35 27 30 39 46 50 51 63 70 73 76 77 72 71 68 66 65 64 69 89 77 107 122 123 120 127 124 118
7 5 2 10 10 5 12 13 15 10 18 14 37 31 32 22 31 36 33 32 36 32 36 48 70 77 82 88 72 73 83 87 87 87 92 88 84 82 73 64 66 94 96 120 134 133 132 131 126
6 2 5 2 5 10 10 4 18 9 12 18 17 36 24 27 32 39 43 44 49 52 56 82 91 87 87 88 86 87 91 97 97 95 91 94 101 100 98 86 70 78 94 86 131 143 135 139 137
8 2 7 6 7 4 8 7 11 8 12 7 7 21 27 25 31 44 57 59 63 68 87 100 98 95 89 87 84 84 88 99 107 104 103 100 97 100 101 99 91 75 73 111 97 146 147 146 137
4 8 9 11 8 10 6 3 24 16 14 13 18 39 36 30 35 74 75 68 70 82 90 90 91 95 94 98 102 102 99 95 106 112 111 108 108 103 102 93 88 91 78 81 106 137 149 131 137
4 8 9 11 5 11 4 14 13 12 20 25 36 39 43 31 50 89 78 86 91 90 89 91 93 96 91 93 98 95 88 91 104 108 108 103 105 104 98 86 86 87 81 73 93 129 140 143 146
4 3 5 12 3 5 6 15 24 16 18 24 39 25 32 41 94 84 92 95 94 92 94 96 91 97 101 99 83 85 92 96 95 98 100 93 94 94 89 78 81 80 79 72 83 85 126 144 139
6 12 6 6 4 12 12 15 12 11 11 8 12 22 50 90 91 86 95 97 95 95 93 91 94 93 90 85 80 85 80 81 89 84 82 81 78 80 80 79 78 79 83 77 84 77 106 139 138
4 4 5 7 8 9 8 16 17 18 13 14 12 43 64 86 85 96 104 99 93 91 85 92 79 79 78 77 78 80 81 84 84 88 92 86 83 79 73 74 73 78 83 83 83 94 95 103 133
6 12 12 8 11 7 4 20 8 17 12 12 25 51 78 78 86 103 101 97 92 87 83 75 81 79 78 78 80 77 75 78 78 83 86 83 84 70 71 66 74 76 83 80 86 92 105 95 117
Wind_Direction_500mb
292 307 332 339 49 62 261 260 245 314 261 4 332 130 160 122 180 226 135 97 52 147 183 185 190 195 198 206 215 221 224 212 209 188 190 180 182 190 196 178 171 164 159 156 154 153 149 141 136
284 308 331 89 101 97 260 261 217 294 311 320 228 132 26 330 3 2 82 246 52 141 181 190 194 199 205 210 213 211 211 215 204 203 183 183 185 181 175 172 162 164 160 159 155 157 153 141 141
285 327 330 92 117 189 219 194 340 313 339 342 306 48 131 187 26 58 346 264 298 162 166 195 200 202 205 209 210 209 216 220 216 220 204 186 184 181 176 180 168 169 165 160 159 158 146 146 145
278 106 52 100 223 249 217 29 334 334 346 16 355 275 133 41 342 312 328 257 205 182 181 197 208 209 208 211 211 217 226 228 223 222 197 188 186 187 183 182 172 174 172 164 164 162 154 154 143
155 90 45 274 248 266 252 288 323 324 307 328 347 296 69 59 310 287 315 299 260 209 197 202 212 217 217 217 217 222 230 233 231 231 202 190 190 190 186 186 179 179 177 172 171 167 164 159 157
111 96 66 252 243 265 287 319 301 309 309 334 22 333 89 357 278 323 328 288 267 225 220 230 226 224 224 224 224 227 229 237 234 233 233 198 198 196 192 187 191 183 185 179 175 175 170 166 163
128 97 221 243 245 287 244 337 267 315 283 302 338 246 146 189 74 328 263 267 241 222 232 243 237 230 233 234 231 229 231 234 238 238 236 209 206 203 201 186 199 188 190 185 182 176 175 174 172
140 97 214 244 215 266 352 348 323 354 295 341 342 239 222 42 20 356 295 257 247 236 237 241 242 237 239 237 235 236 237 237 238 238 240 229 212 210 207 193 198 196 194 192 178 175 181 183 178
133 64 237 257 184 264 5 8 335 305 282 295 255 254 250 258 295 291 304 279 291 273 254 249 250 245 243 243 250 247 238 238 242 241 242 233 220 215 211 204 201 203 202 184 175 180 188 187 187
101 141 224 242 298 281 311 285 314 312 295 284 277 270 244 278 293 289 290 274 253 262 278 277 256 251 250 249 239 244 248 240 237 234 237 236 226 214 215 211 207 196 186 183 184 186 189 187 192
151 201 214 269 291 327 302 289 259 266 289 281 285 298 296 295 294 288 281 283 276 258 253 257 260 258 259 252 249 241 242 239 236 237 236 236 231 224 218 215 212 201 194 193 196 192 193 196 197
209 206 219 301 299 314 301 301 278 220 254 272 287 298 303 307 305 307 300 287 278 270 258 251 256 255 253 251 250 251 246 239 244 238 237 231 229 227 222 216 217 201 203 201 204 198 202 203 201
208 332 289 276 291 285 282 266 263 269 279 284 274 265 289 306 306 301 299 294 287 282 277 267 262 263 260 257 254 251 252 253 245 242 241 231 231 230 229 218 212 208 206 205 208 200 202 206 200
295 288 285 286 282 289 299 270 331 248 265 285 271 265 274 292 307 297 289 287 284 281 278 275 270 265 263 263 258 258 257 254 261 245 242 240 233 232 233 229 219 211 209 214 212 204 201 205 204
321 327 325 110 343 329 327 292 226 269 269 284 292 296 296 296 298 298 295 292 292 285 280 276 271 265 259 256 259 261 263 263 256 261 254 238 235 231 234 232 230 212 210 214 214 210 204 206 209
41 58 357 231 0 31 64 276 265 274 287 297 299 296 300 291 297 301 300 300 287 281 279 285 274 270 274 264 258 257 258 260 261 258 250 241 233 232 232 231 229 221 209 213 216 212 205 206 206
5 248 304 318 40 359 144 281 259 287 288 290 292 294 297 291 293 302 301 299 295 286 274 270 272 276 273 274 271 264 262 262 261 258 257 258 239 235 232 236 234 224 210 210 215 215 210 206 203
254 320 300 251 314 358 277 264 276 283 282 275 282 284 287 291 295 292 283 296 306 288 268 257 275 280 280 278 278 273 268 270 271 268 265 259 258 242 248 234 238 226 212 210 213 219 214 212 206
116 161 257 254 290 334 270 275 286 287 263 253 264 260 278 288 295 289 266 275 277 277 259 247 260 261 262 268 276 274 270 270 268 269 267 258 258 262 258 241 236 229 216 213 210 216 216 207 206
97 312 277 294 306 320 295 290 279 296 250 225 221 257 280 282 277 291 261 272 262 259 256 255 262 267 274 276 273 274 276 270 266 267 262 254 256 256 256 251 235 224 220 210 213 212 209 212 208
233 196 247 241 321 234 306 293 316 279 310 295 251 270 274 275 296 307 289 279 259 252 268 277 280 278 280 300 295 280 271 269 268 266 264 263 262 260 260 259 257 231 220 210 210 214 220 210 204
292 188 290 300 30 271 27 283 301 353 314 299 276 265 261 279 310 321 297 277 263 261 267 293 297 293 289 294 288 280 276 271 266 267 265 263 262 264 262 257 256 241 230 221 206 210 221 220 209
260 358 310 349 99 33 321 66 274 4 302 270 252 256 255 307 326 330 322 287 280 278 278 294 298 290 287 286 285 282 278 274 275 271 270 268 264 262 263 258 252 252 237 223 211 210 211 219 218
336 338 42 57 93 350 241 124 270 237 210 259 265 250 281 304 330 333 324 315 300 290 292 298 301 298 291 287 283 278 277 271 270 274 275 270 270 265 260 259 251 251 251 246 226 210 214 215 221
62 42 327 341 360 239 142 11 250 268 237 226 244 272 288 299 315 328 321 318 313 305 301 299 298 297 297 294 290 285 279 271 267 271 274 274 271 265 261 256 250 246 245 245 240 211 213 218 221
127 137 157 256 286 284 17 237 249 236 273 257 257 277 282 291 311 321 325 322 319 313 308 305 302 295 289 286 284 281 276 266 266 269 270 270 268 265 260 255 248 248 238 245 243 217 218 218 218
143 165 128 102 114 8 235 274 279 288 267 256 263 276 288 313 320 321 326 322 319 313 310 306 300 298 294 292 283 275 271 271 267 266 266 260 260 259 256 249 243 242 237 235 234 228 210 217 219
185 146 75 7 329 291 277 277 238 285 258 241 292 299 310 319 319 322 325 320 318 312 308 305 299 293 292 288 284 279 274 269 267 265 258 255 251 248 249 247 235 235 233 228 230 227 216 219 218
143 210 69 113 155 199 300 268 210 230 236 239 267 305 313 312 318 324 324 322 316 313 306 301 297 295 292 292 290 283 278 273 269 262 257 254 255 249 247 242 230 231 227 223 224 228 225 216 217
192 193 164 139 234 235 199 267 216 226 218 195 290 306 315 311 321 325 324 321 320 309 306 303 304 306 304 301 291 281 277 272 267 262 259 253 247 243 239 237 223 224 223 217 221 223 219 221 217
Wind_Speed_850mb
15 14 17 4 6 9 6 9 4 8 2 5 5 2 3 5 3 5 1 5 5 6 21 41 45 43 41 39 35 32 29 27 27 26 27 26 23 23 23 21 24 27 28 30 32 32 34 38 39
13 11 8 4 8 3 9 7 3 5 15 23 5 2 4 1 4 3 6 2 4 6 13 33 41 42 39 36 31 28 25 23 27 29 27 25 26 25 22 22 28 28 29 29 31 30 33 40 40
11 10 6 7 6 9 9 5 6 19 23 6 4 3 4 1 4 3 4 2 2 8 10 25 33 36 34 32 30 29 27 25 24 26 29 28 25 27 28 27 30 29 28 29 32 31 37 40 44
3 1 6 6 10 10 8 4 8 17 12 10 9 3 5 3 3 7 9 3 5 10 12 16 29 33 33 32 31 30 29 28 23 20 27 29 27 29 30 30 31 29 29 29 32 34 42 40 47
5 4 3 2 9 10 5 6 15 8 10 14 14 6 4 5 4 4 4 3 6 10 13 14 23 33 34 32 33 32 33 31 26 23 28 33 33 31 31 31 32 34 30 31 34 34 41 46 45
7 6 3 7 9 9 10 8 9 3 10 14 12 12 4 3 6 5 2 4 7 7 8 13 20 29 36 36 37 37 37 36 31 28 25 34 35 36 36 34 33 35 34 33 36 39 45 44 38
11 8 8 6 7 8 3 19 1 4 9 3 12 5 4 6 1 3 6 8 9 15 19 19 22 26 31 39 41 41 41 41 37 33 30 33 37 38 38 39 38 35 36 35 39 42 44 46 44
9 8 3 8 4 9 9 14 6 8 6 12 7 7 4 3 3 8 10 13 14 19 24 29 32 36 36 40 43 43 43 44 41 37 36 36 40 42 42 43 40 42 40 39 40 38 40 44 45
10 7 5 8 7 5 10 12 6 15 19 14 6 5 7 10 11 10 9 13 19 21 26 30 36 41 43 38 38 43 47 45 43 39 42 41 43 47 44 45 45 46 40 44 44 41 42 44 47
7 6 13 4 2 4 12 4 18 12 14 15 32 26 20 27 35 30 25 19 20 23 25 25 37 44 49 47 47 46 48 52 52 52 51 49 49 53 49 51 48 50 38 46 46 46 50 42 49
4 9 4 5 4 10 10 12 5 6 11 19 13 31 37 34 28 28 28 25 25 28 28 33 31 38 52 57 58 60 57 61 63 62 59 57 56 54 56 55 54 57 51 50 51 52 45 41 49
4 5 3 4 6 13 13 23 14 24 31 35 38 34 27 23 21 24 31 34 32 28 31 35 37 38 44 49 64 71 75 73 70 69 67 64 63 65 61 64 58 68 62 61 63 57 50 46 49
3 3 7 10 26 29 28 26 21 39 55 40 39 27 22 30 41 46 49 46 44 47 44 42 45 46 45 43 50 63 74 83 82 76 73 73 73 72 69 69 66 70 68 69 70 63 57 56 56
4 10 20 10 7 7 11 13 8 13 12 24 20 26 34 46 63 64 58 54 51 49 51 51 53 53 58 54 50 49 59 69 83 84 81 79 84 80 78 74 73 80 76 72 76 70 64 58 60
7 11 11 1 4 1 14 18 17 31 24 20 26 43 59 71 49 38 32 28 25 25 29 35 38 44 52 59 60 54 49 53 64 82 91 88 92 94 84 82 78 88 85 82 81 78 72 66 64
5 5 7 2 11 3 9 21 12 14 15 34 54 68 62 35 27 21 18 28 30 34 31 28 32 35 39 42 46 53 49 47 58 63 77 104 107 96 98 93 90 85 97 94 87 91 84 77 70
11 4 4 15 5 8 3 19 20 53 45 47 58 61 45 33 24 20 27 33 36 42 38 28 24 28 33 36 37 42 47 46 46 57 64 71 90 103 100 104 100 89 105 105 93 99 96 89 85
4 5 7 10 6 9 19 41 47 73 38 47 58 46 34 30 29 26 21 21 23 26 27 24 24 27 28 29 32 35 45 51 49 47 54 69 68 91 91 116 112 104 116 115 102 100 102 96 94
7 2 8 9 6 11 17 28 49 61 31 43 50 30 25 28 23 23 22 26 22 22 23 27 34 35 34 33 34 35 36 36 39 45 50 58 62 69 72 115 131 124 119 114 110 102 109 105 105
2 3 10 12 3 7 19 43 53 24 13 22 21 16 24 28 22 19 26 28 31 31 32 33 36 39 38 39 43 49 54 54 54 53 49 45 59 64 63 73 75 117 118 118 109 102 110 117 111
5 7 5 9 13 4 21 15 13 8 6 9 19 25 32 27 25 36 35 37 39 35 27 30 39 46 50 51 63 70 73 76 77 72 71 68 66 65 64 69 89 77 107 122 123 120 127 124 118
7 5 2 10 10 5 12 13 15 10 18 14 37 31 32 22 31 36 33 32 36 32 36 48 70 77 82 88 72 73 83 87 87 87 92 88 84 82 73 64 66 94 96 120 134 133 132 131 126
6 2 5 2 5 10 10 4 18 9 12 18 17 36 24 27 32 39 43 44 49 52 56 82 91 87 87 88 86 87 91 97 97 95 91 94 101 100 98 86 70 78 94 86 131 143 135 139 137
8 2 7 6 7 4 8 7 11 8 12 7 7 21 27 25 31 44 57 59 63 68 87 100 98 95 89 87 84 84 88 99 107 104 103 100 97 100 101 99 91 75 73 111 97 146 147 146 137
4 8 9 11 8 10 6 3 24 16 14 13 18 39 36 30 35 74 75 68 70 82 90 90 91 95 94 98 102 102 99 95 106 112 111 108 108 103 102 93 88 91 78 81 106 137 149 131 137
4 8 9 11 5 11 4 14 13 12 20 25 36 39 43 31 50 89 78 86 91 90 89 91 93 96 91 93 98 95 88 91 104 108 108 103 105 104 98 86 86 87 81 73 93 129 140 143 146
4 3 5 12 3 5 6 15 24 16 18 24 39 25 32 41 94 84 92 95 94 92 94 96 91 97 101 99 83 85 92 96 95 98 100 93 94 94 89 78 81 80 79 72 83 85 126 144 139
6 12 6 6 4 12 12 15 12 11 11 8 12 22 50 90 91 86 95 97 95 95 93 91 94 93 90 85 80 85 80 81 89 84 82 81 78 80 80 79 78 79 83 77 84 77 106 139 138
4 4 5 7 8 9 8 16 17 18 13 14 12 43 64 86 85 96 104 99 93 91 85 92 79 79 78 77 78 80 81 84 84 88 92 86 83 79 73 74 73 78 83 83 83 94 95 103 133
6 12 12 8 11 7 4 20 8 17 12 12 25 51 78 78 86 103 101 97 92 87 83 75 81 79 78 78 80 77 75 78 78 83 86 83 84 70 71 66 74 76 83 80 86 92 105 95 117
Wind_Direction_850mb
292 307 332 339 49 62 261 260 245 314 261 4 332 130 160 122 180 226 135 97 52 147 183 185 190 195 198 206 215 221 224 212 209 188 190 180 182 190 196 178 171 164 159 156 154 153 149 141 136
284 308 331 89 101 97 260 261 217 294 311 320 228 132 26 330 3 2 82 246 52 141 181 190 194 199 205 210 213 211 211 215 204 203 183 183 185 181 175 172 162 164 160 159 155 157 153 141 141
285 327 330 92 117 189 219 194 340 313 339 342 306 48 131 187 26 58 346 264 298 162 166 195 200 202 205 209 210 209 216 220 216 220 204 186 184 181 176 180 168 169 165 160 159 158 146 146 145
278 106 52 100 223 249 217 29 334 334 346 16 355 275 133 41 342 312 328 257 205 182 181 197 208 209 208 211 211 217 226 228 223 222 197 188 186 187 183 182 172 174 172 164 164 162 154 154 143
155 90 45 274 248 266 252 288 323 324 307 328 347 296 69 59 310 287 315 299 260 209 197 202 212 217 217 217 217 222 230 233 231 231 202 190 190 190 186 186 179 179 177 172 171 167 164 159 157
111 96 66 252 243 265 287 319 301 309 309 334 22 333 89 357 278 323 328 288 267 225 220 230 226 224 224 224 224 227 229 237 234 233 233 198 198 196 192 187 191 183 185 179 175 175 170 166 163
128 97 221 243 245 287 244 337 267 315 283 302 338 246 146 189 74 328 263 267 241 222 232 243 237 230 233 234 231 229 231 234 238 238 236 209 206 203 201 186 199 188 190 185 182 176 175 174 172
140 97 214 244 215 266 352 348 323 354 295 341 342 239 222 42 20 356 295 257 247 236 237 241 242 237 239 237 235 236 237 237 238 238 240 229 212 210 207 193 198 196 194 192 178 175 181 183 178
133 64 237 257 184 264 5 8 335 305 282 295 255 254 250 258 295 291 304 279 291 273 254 249 250 245 243 243 250 247 238 238 242 241 242 233 220 215 211 204 201 203 202 184 175 180 188 187 187
101 141 224 242 298 281 311 285 314 312 295 284 277 270 244 278 293 289 290 274 253 262 278 277 256 251 250 249 239 244 248 240 237 234 237 236 226 214 215 211 207 196 186 183 184 186 189 187 192
151 201 214 269 291 327 302 289 259 266 289 281 285 298 296 295 294 288 281 283 276 258 253 257 260 258 259 252 249 241 242 239 236 237 236 236 231 224 218 215 212 201 194 193 196 192 193 196 197
209 206 219 301 299 314 301 301 278 220 254 272 287 298 303 307 305 307 300 287 278 270 258 251 256 255 253 251 250 251 246 239 244 238 237 231 229 227 222 216 217 201 203 201 204 198 202 203 201
208 332 289 276 291 285 282 266 263 269 279 284 274 265 289 306 306 301 299 294 287 282 277 267 262 263 260 257 254 251 252 253 245 242 241 231 231 230 229 218 212 208 206 205 208 200 202 206 200
295 288 285 286 282 289 299 270 331 248 265 285 271 265 274 292 307 297 289 287 284 281 278 275 270 265 263 263 258 258 257 254 261 245 242 240 233 232 233 229 219 211 209 214 212 204 201 205 204
321 327 325 110 343 329 327 292 226 269 269 284 292 296 296 296 298 298 295 292 292 285 280 276 271 265 259 256 259 261 263 263 256 261 254 238 235 231 234 232 230 212 210 214 214 210 204 206 209
41 58 357 231 0 31 64 276 265 274 287 297 299 296 300 291 297 301 300 300 287 281 279 285 274 270 274 264 258 257 258 260 261 258 250 241 233 232 232 231 229 221 209 213 216 212 205 206 206
5 248 304 318 40 359 144 281 259 287 288 290 292 294 297 291 293 302 301 299 295 286 274 270 272 276 273 274 271 264 262 262 261 258 257 258 239 235 232 236 234 224 210 210 215 215 210 206 203
254 320 300 251 314 358 277 264 276 283 282 275 282 284 287 291 295 292 283 296 306 288 268 257 275 280 280 278 278 273 268 270 271 268 265 259 258 242 248 234 238 226 212 210 213 219 214 212 206
116 161 257 254 290 334 270 275 286 287 263 253 264 260 278 288 295 289 266 275 277 277 259 247 260 261 262 268 276 274 270 270 268 269 267 258 258 262 258 241 236 229 216 213 210 216 216 207 206
97 312 277 294 306 320 295 290 279 296 250 225 221 257 280 282 277 291 261 272 262 259 256 255 262 267 274 276 273 274 276 270 266 267 262 254 256 256 256 251 235 224 220 210 213 212 209 212 208
233 196 247 241 321 234 306 293 316 279 310 295 251 270 274 275 296 307 289 279 259 252 268 277 280 278 280 300 295 280 271 269 268 266 264 263 262 260 260 259 257 231 220 210 210 214 220 210 204
292 188 290 300 30 271 27 283 301 353 314 299 276 265 261 279 310 321 297 277 263 261 267 293 297 293 289 294 288 280 276 271 266 267 265 263 262 264 262 257 256 241 230 221 206 210 221 220 209
260 358 310 349 99 33 321 66 274 4 302 270 252 256 255 307 326 330 322 287 280 278 278 294 298 290 287 286 285 282 278 274 275 271 270 268 264 262 263 258 252 252 237 223 211 210 211 219 218
336 338 42 57 93 350 241 124 270 237 210 259 265 250 281 304 330 333 324 315 300 290 292 298 301 298 291 287 283 278 277 271 270 274 275 270 270 265 260 259 251 251 251 246 226 210 214 215 221
62 42 327 341 360 239 142 11 250 268 237 226 244 272 288 299 315 328 321 318 313 305 301 299 298 297 297 294 290 285 279 271 267 271 274 274 271 265 261 256 250 246 245 245 240 211 213 218 221
127 137 157 256 286 284 17 237 249 236 273 257 257 277 282 291 311 321 325 322 319 313 308 305 302 295 289 286 284 281 276 266 266 269 270 270 268 265 260 255 248 248 238 245 243 217 218 218 218
143 165 128 102 114 8 235 274 279 288 267 256 263 276 288 313 320 321 326 322 319 313 310 306 300 298 294 292 283 275 271 271 267 266 266 260 260 259 256 249 243 242 237 235 234 228 210 217 219
185 146 75 7 329 291 277 277 238 285 258 241 292 299 310 319 319 322 325 320 318 312 308 305 299 293 292 288 284 279 274 269 267 265 258 255 251 248 249 247 235 235 233 228 230 227 216 219 218
143 210 69 113 155 199 300 268 210 230 236 239 267 305 313 312 318 324 324 322 316 313 306 301 297 295 292 292 290 283 278 273 269 262 257 254 255 249 247 242 230 231 227 223 224 228 225 216 217
192 193 164 139 234 235 199 267 216 226 218 195 290 306 315 311 321 325 324 321 320 309 306 303 304 306 304 301 291 281 277 272 267 262 259 253 247 243 239 237 223 224 223 217 221 223 219 221 217